[[{"header":{"parameterUnit":"m.s-1","parameterCategory":1,"la1":30.2991,"la2":30.254,"lo1":-89.0895,"lo2":-89.0444,"dy":0.0017,"dx":0.0017,"nx":28,"ny":28,"refTime":"2025-03-20T09:00:00:Z","depth":0,"parameterNumber":2,"parameterNumberName":"U-component_of_WINDS"},"data":[0,0,0,0,0,0,0,0,0,0,0,0,0,0,0,0,0,0,0,0,0,0,0,0,0,0,0,0,0,0,0,0,0,0,0,0,0,0,0,0,0,0,0,0,0,0,0,0,0,0,0,0,0,0,0,0,0,0,2.6634,2.6634,0,2.6657,2.6657,2.6657,2.66,2.6599,2.6597,2.6595,2.6617,2.6619,2.6621,0,0,0,0,0,0,0,0,0,0,0,0,0,2.6541,2.6543,2.6634,2.6634,2.6634,2.6657,2.6657,2.6657,2.6601,2.6599,2.6596,2.6594,2.6616,2.6619,2.6622,0,0,0,0,0,0,0,0,0,0,0,0,0,2.6575,2.6544,2.6634,2.6609,2.6607,2.6657,2.6657,2.6657,2.6601,2.6599,2.6596,2.6593,2.6615,2.6619,2.6622,2.6696,0,0,2.6632,2.6634,0,0,0,0,0,0,0,0,2.6573,2.6578,2.6612,2.6611,2.6609,2.6623,2.6632,2.667,2.6602,2.6603,2.6595,2.6592,2.6621,2.6624,2.6634,2.6697,2.6698,2.6632,2.6634,2.6636,2.6637,0,0,0,0,0,0,0,2.6571,2.6577,2.6643,2.6613,2.6611,2.6597,2.6598,2.6639,2.6627,2.6603,2.6599,2.6603,2.6619,2.6631,2.6634,2.6698,2.6632,2.6635,2.6637,2.6639,2.6826,2.6829,0,0,0,0,0,0,2.6572,2.6575,2.6642,2.6643,2.6584,2.6601,2.6602,2.6621,2.6626,2.6624,2.6605,2.66,2.6626,2.663,2.6634,2.6723,2.6636,2.6639,2.6641,2.6823,2.6826,2.683,0,0,0,0,0,0,2.657,2.6578,2.6641,2.6608,2.6615,2.6605,2.6626,2.6623,2.6634,2.6628,2.6625,2.6619,2.6624,2.663,2.6682,2.6723,2.6641,2.6644,2.6819,2.6824,2.6828,2.6899,0,0,0,0,0,0,2.6567,2.6578,2.6606,2.6609,2.6617,2.6688,2.6629,2.6625,2.664,2.6634,2.664,2.6638,2.6623,2.6677,2.6685,2.6726,2.6646,2.6816,2.6821,2.6827,2.6893,2.6905,2.6916,0,0,0,0,0,2.6564,2.6624,2.6607,2.6616,2.6652,2.669,2.6695,2.6676,2.6644,2.6672,2.6668,2.6638,2.6717,2.6683,2.6691,2.6734,2.6813,2.682,2.6826,2.6888,2.6903,2.6916,0,0,0,0,0,0,2.6623,2.6624,2.6605,2.6668,2.668,2.6681,2.6715,2.6693,2.6713,2.6706,2.6682,2.6684,2.6741,2.6742,2.6704,2.6807,2.6759,2.6768,2.6803,2.6818,2.6829,2.6827,2.6649,0,0,0,0,0,2.6644,2.6676,2.6674,2.673,2.6737,2.6726,2.6741,2.6727,2.6737,2.6742,2.6742,2.6754,2.6781,2.68,2.6824,2.6894,2.6895,2.6927,2.6939,2.6948,2.6956,2.6994,2.7009,2.6852,2.6851,2.6851,0,0,2.6686,2.6691,2.6712,2.6742,2.6749,2.6783,2.673,2.6767,2.6792,2.6747,2.6797,2.6798,2.6809,2.6871,2.6898,2.6874,2.7,2.6957,2.6964,2.6967,2.7002,2.7017,2.703,2.6856,2.6855,2.6854,0,0,2.6781,2.6787,2.6834,2.6844,2.6856,2.6849,2.6861,2.6866,2.6865,2.6915,2.6883,2.6912,2.696,2.697,2.6981,2.7083,2.7057,2.7092,2.7152,2.7189,2.7202,2.7213,2.725,2.7263,2.71,2.71,2.71,0,2.6831,2.6881,2.6861,2.6902,2.6916,2.688,2.6928,2.6938,2.6958,2.6969,2.6942,2.7003,2.7008,2.7072,2.7097,2.7108,2.7121,2.7091,2.7202,2.7212,2.7222,2.7257,2.7271,2.7104,2.7104,2.7103,2.7103,0,2.6943,2.6978,2.7015,2.7037,2.7056,2.71,2.7088,2.7109,2.7094,2.709,2.7142,2.7147,2.7173,2.7188,2.7172,2.725,2.7235,2.7206,2.7157,2.7242,2.7274,2.7287,2.711,2.7109,2.7108,2.7107,0,0,2.7072,2.7086,2.7099,2.711,2.7123,2.7149,2.7193,2.722,2.7239,2.7255,2.7291,2.7334,2.7307,2.732,2.7306,2.7339,2.7421,2.7305,2.7305,2.7327,2.7509,2.7531,2.7547,2.7404,2.7407,2.7409,2.7508,0,2.7166,2.7241,2.7226,2.7299,2.7332,2.73,2.7338,2.735,2.7348,2.7376,2.7373,2.7404,2.7367,2.7375,2.7406,2.7404,2.7457,2.7397,2.7437,2.7439,2.7435,2.7563,2.7586,2.7679,2.7521,2.7523,2.7524,0,2.7284,2.7306,2.7383,2.7393,2.7407,2.7441,2.7465,2.7492,2.7506,2.7503,2.7519,2.7499,2.7543,2.7496,2.7556,2.7516,2.7532,2.7534,2.7537,2.7539,2.7486,2.7569,2.7709,2.7723,2.7544,2.7542,2.7541,0,2.7372,2.7421,2.7474,2.7484,2.7496,2.7521,2.7528,2.7539,2.7557,2.7579,2.759,2.7617,2.7631,2.7652,2.764,2.7607,2.7703,2.7654,2.7702,2.7702,2.7722,2.7721,2.7866,2.7734,2.7734,2.7733,2.7733,0,2.7477,2.7526,2.7513,2.7546,2.76,2.7583,2.7637,2.764,2.7651,2.7683,2.7657,2.7688,2.7671,2.7701,2.7692,2.7744,2.7751,2.7749,2.7746,2.7751,2.7752,2.7761,2.7754,2.7737,2.7736,2.7735,2.7735,0,2.7583,2.7577,2.7632,2.7641,2.7645,2.7684,2.7691,2.7722,2.7719,2.7761,2.777,2.7765,2.78,2.7791,2.7827,2.7822,2.7888,2.7876,2.7883,2.788,2.7928,2.7924,2.8084,2.8104,2.7959,2.796,2.7962,0,2.765,2.7687,2.7701,2.7721,2.773,2.7763,2.7782,2.7768,2.7789,2.781,2.7838,2.7871,2.7896,2.7952,2.7952,2.7981,2.797,2.8025,2.7974,2.7979,2.7971,2.7969,2.7973,2.8034,2.8036,2.8037,2.8038,0,2.7771,2.7767,2.7795,2.7824,2.7848,2.7869,2.7888,2.7906,2.7894,2.7919,2.7954,2.7974,2.8013,2.8046,2.8073,2.808,2.8058,2.8055,2.8067,2.8072,2.8075,2.8075,2.791,2.8051,2.8049,2.8048,2.8048,2.8047,2.786,2.7892,2.7907,2.794,2.7953,2.7972,2.8002,2.8004,2.8034,2.8065,2.8056,2.8097,2.8112,2.8146,2.8157,2.8189,2.8168,2.8186,2.819,2.8195,2.8201,2.8071,2.8194,2.8193,2.8193,2.8193,2.8192,0,2.7979,2.7988,2.8019,2.8047,2.8074,2.8052,2.8073,2.8097,2.8133,2.815,2.8176,2.8218,2.8251,2.8254,2.8285,2.831,2.8301,2.8319,2.8316,2.8319,2.8218,2.8204,2.8326,2.8326,2.8326,2.8326,2.8326,2.8326,2.8044,2.8098,2.8096,2.8156,2.8165,2.8205,2.8219,2.8237,2.825,2.8299,2.8326,2.8329,2.8341,2.8373,2.8402,2.8403,2.8415,2.8437,2.8434,2.8339,2.8326,2.8313,2.83,2.844,2.844,2.8532,2.8533,2.8533]},{"header":{"parameterUnit":"m.s-1","parameterCategory":1,"la1":30.2991,"la2":30.254,"lo1":-89.0895,"lo2":-89.0444,"dy":0.0017,"dx":0.0017,"nx":28,"ny":28,"refTime":"2025-03-20T09:00:00:Z","depth":0,"parameterNumber":3,"parameterNumberName":"V-component_of_WINDS"},"data":[0,0,0,0,0,0,0,0,0,0,0,0,0,0,0,0,0,0,0,0,0,0,0,0,0,0,0,0,0,0,0,0,0,0,0,0,0,0,0,0,0,0,0,0,0,0,0,0,0,0,0,0,0,0,0,0,0,0,-5.69,-5.6902,0,-5.7067,-5.7069,-5.7071,-5.6995,-5.6991,-5.6987,-5.6983,-5.7154,-5.7162,-5.717,0,0,0,0,0,0,0,0,0,0,0,0,0,-5.6514,-5.6522,-5.69,-5.6902,-5.6904,-5.7067,-5.7069,-5.7072,-5.6996,-5.6991,-5.6986,-5.6981,-5.7151,-5.7161,-5.7171,0,0,0,0,0,0,0,0,0,0,0,0,0,-5.6682,-5.6524,-5.69,-5.6886,-5.6887,-5.7067,-5.707,-5.7072,-5.6997,-5.6991,-5.6985,-5.6979,-5.7148,-5.716,-5.7173,-5.7375,0,0,-5.7211,-5.7217,0,0,0,0,0,0,0,0,-5.6672,-5.6696,-5.6886,-5.6887,-5.6888,-5.7004,-5.6996,-5.7174,-5.6999,-5.6955,-5.6983,-5.6976,-5.7109,-5.7124,-5.717,-5.7383,-5.7391,-5.7212,-5.722,-5.7225,-5.7229,0,0,0,0,0,0,0,-5.6661,-5.6688,-5.6966,-5.6889,-5.689,-5.6872,-5.6888,-5.7029,-5.7065,-5.6959,-5.6953,-5.6974,-5.7108,-5.7158,-5.7173,-5.7393,-5.7212,-5.7223,-5.7231,-5.7236,-5.7782,-5.7789,0,0,0,0,0,0,-5.665,-5.6679,-5.6961,-5.6971,-5.6763,-5.6884,-5.6902,-5.6973,-5.7063,-5.7071,-5.698,-5.697,-5.7139,-5.7158,-5.7179,-5.7423,-5.7225,-5.7237,-5.7244,-5.7775,-5.7784,-5.7791,0,0,0,0,0,0,-5.6642,-5.6675,-5.6954,-5.6824,-5.6858,-5.6897,-5.6977,-5.698,-5.7029,-5.7079,-5.7085,-5.7023,-5.7135,-5.7161,-5.7327,-5.7427,-5.7243,-5.7254,-5.7767,-5.7778,-5.7788,-5.7912,0,0,0,0,0,0,-5.6631,-5.6673,-5.6751,-5.6826,-5.6865,-5.7101,-5.6983,-5.6988,-5.7051,-5.704,-5.7122,-5.7129,-5.7132,-5.7309,-5.734,-5.7441,-5.7264,-5.7758,-5.7772,-5.7784,-5.7899,-5.7925,-5.7948,0,0,0,0,0,-5.6617,-5.6779,-5.6755,-5.6789,-5.6963,-5.7106,-5.7129,-5.7129,-5.7059,-5.7138,-5.717,-5.7127,-5.7411,-5.7326,-5.7361,-5.7468,-5.7752,-5.7768,-5.7783,-5.7888,-5.792,-5.7947,0,0,0,0,0,0,-5.6713,-5.6788,-5.6763,-5.6953,-5.7024,-5.7093,-5.7192,-5.7163,-5.7254,-5.724,-5.7236,-5.7255,-5.7428,-5.7464,-5.7368,-5.7669,-5.7571,-5.7594,-5.7639,-5.767,-5.7694,-5.7682,-5.7275,0,0,0,0,0,-5.6757,-5.6867,-5.6926,-5.7089,-5.7126,-5.7153,-5.7215,-5.721,-5.7282,-5.7312,-5.7356,-5.7429,-5.7534,-5.7604,-5.7704,-5.7904,-5.792,-5.7994,-5.8018,-5.8038,-5.8059,-5.8167,-5.8201,-5.7843,-5.7842,-5.7842,0,0,-5.6848,-5.6902,-5.6972,-5.711,-5.7164,-5.7278,-5.7179,-5.7304,-5.7388,-5.7331,-5.7491,-5.7526,-5.7606,-5.7791,-5.7874,-5.7826,-5.8161,-5.8058,-5.8074,-5.8083,-5.8187,-5.8221,-5.8251,-5.7853,-5.7851,-5.785,0,0,-5.7071,-5.7124,-5.7265,-5.7322,-5.7405,-5.7422,-5.7456,-5.753,-5.7552,-5.7712,-5.7671,-5.7772,-5.7954,-5.8013,-5.8067,-5.8314,-5.8278,-5.8346,-5.8474,-5.858,-5.8608,-5.8633,-5.8722,-5.8754,-5.8366,-5.8367,-5.8367,0,-5.7174,-5.7344,-5.7341,-5.747,-5.7532,-5.7486,-5.7629,-5.7683,-5.7795,-5.7839,-5.7784,-5.8012,-5.8063,-5.826,-5.8321,-5.8366,-5.8404,-5.8337,-5.8604,-5.863,-5.8653,-5.8737,-5.8771,-5.8375,-5.8374,-5.8373,-5.8372,0,-5.7466,-5.7585,-5.769,-5.7799,-5.7873,-5.8008,-5.8026,-5.81,-5.8088,-5.8111,-5.8275,-5.8335,-5.8446,-5.8492,-5.8482,-5.8689,-5.8657,-5.8604,-5.8505,-5.8695,-5.8774,-5.8806,-5.8386,-5.8383,-5.8381,-5.8379,0,0,-5.7756,-5.7862,-5.7901,-5.795,-5.8039,-5.8131,-5.8264,-5.8373,-5.8438,-5.8516,-5.8628,-5.8783,-5.8735,-5.8796,-5.8791,-5.8884,-5.9077,-5.882,-5.8821,-5.8866,-5.931,-5.935,-5.9387,-5.9053,-5.9059,-5.9064,-5.9303,0,-5.7986,-5.822,-5.8221,-5.8437,-5.8547,-5.8505,-5.8621,-5.8688,-5.8713,-5.881,-5.8837,-5.8948,-5.8875,-5.8911,-5.9002,-5.9034,-5.9166,-5.9017,-5.9157,-5.9162,-5.9139,-5.9429,-5.9471,-5.9694,-5.9334,-5.9339,-5.9343,0,-5.8287,-5.8376,-5.8603,-5.8676,-5.8722,-5.8826,-5.8927,-5.902,-5.9095,-5.9107,-5.9176,-5.9157,-5.9293,-5.919,-5.9377,-5.9276,-5.9333,-5.9358,-5.9366,-5.938,-5.9264,-5.945,-5.9765,-5.9799,-5.9392,-5.9388,-5.9384,0,-5.8476,-5.8652,-5.8811,-5.8854,-5.8943,-5.9018,-5.9058,-5.9127,-5.9193,-5.9281,-5.9324,-5.9426,-5.9482,-5.9562,-5.9571,-5.9496,-5.976,-5.9658,-5.9773,-5.9773,-5.9831,-5.9828,-6.016,-5.9868,-5.9867,-5.9866,-5.9866,0,-5.8734,-5.8874,-5.8897,-5.8994,-5.9151,-5.9151,-5.9305,-5.9339,-5.9401,-5.9504,-5.9474,-5.9571,-5.9577,-5.9678,-5.9686,-5.984,-5.9865,-5.9878,-5.9879,-5.9882,-5.988,-5.992,-5.9904,-5.9875,-5.9873,-5.9872,-5.987,0,-5.8971,-5.8992,-5.9162,-5.9233,-5.9254,-5.9366,-5.9426,-5.9519,-5.9541,-5.9673,-5.9703,-5.9738,-5.9855,-5.9872,-6.0008,-6.0014,-6.0199,-6.0183,-6.0174,-6.0172,-6.0287,-6.0276,-6.0656,-6.0706,-6.0381,-6.0384,-6.0387,0,-5.9135,-5.9242,-5.9324,-5.9391,-5.9436,-5.9545,-5.9612,-5.9616,-5.9687,-5.9781,-5.9863,-5.9977,-6.0068,-6.0256,-6.0293,-6.0397,-6.0384,-6.051,-6.04,-6.0399,-6.0387,-6.038,-6.0391,-6.0532,-6.0535,-6.0538,-6.0541,0,-5.9423,-5.9428,-5.9526,-5.9629,-5.971,-5.9791,-5.9867,-5.9924,-5.9938,-6.0019,-6.0138,-6.0209,-6.0348,-6.0462,-6.0565,-6.0606,-6.0577,-6.0575,-6.0607,-6.0612,-6.0602,-6.0609,-6.0232,-6.0566,-6.0564,-6.0562,-6.0561,-6.0559,-5.9629,-5.9722,-5.9795,-5.9906,-5.9963,-6.0035,-6.0127,-6.016,-6.026,-6.0374,-6.037,-6.0501,-6.0574,-6.0709,-6.0758,-6.086,-6.0819,-6.0866,-6.0878,-6.089,-6.0901,-6.0586,-6.0879,-6.0878,-6.0878,-6.0877,-6.0877,0,-5.9916,-5.996,-6.0062,-6.017,-6.0257,-6.0222,-6.0304,-6.0379,-6.0495,-6.0565,-6.0656,-6.0793,-6.0902,-6.0949,-6.1056,-6.1129,-6.1119,-6.1158,-6.1153,-6.1163,-6.0932,-6.0893,-6.1165,-6.1165,-6.1165,-6.1165,-6.1164,-6.1164,-6.0075,-6.0232,-6.0246,-6.0431,-6.0474,-6.0603,-6.0653,-6.0719,-6.0775,-6.093,-6.1021,-6.105,-6.1111,-6.1223,-6.1322,-6.1333,-6.1374,-6.142,-6.1424,-6.1208,-6.1179,-6.1151,-6.1115,-6.1429,-6.1429,-6.1647,-6.1649,-6.165]}]]